Content
SEND FEEDBACK

Daily
Averages
Monthly
Summary
United Kingdom

LONDON, ENGLAND


Home > Europe > United Kingdom > England
Elevation: 203 feet     Latitude: 51 09N     Longitude: 000 11W

WEATHER
 
SELECT A DAY
Number of Records: 292,972;   Date Range: 7/1/96 - 7/29/14
 
SHARE

PRINT THIS DATA

[ ← Previous Day ]
WEATHER ALMANAC - JANUARY 28, 2013
[ Next Day → ]
[ °C ]   °F
Weather ElementAverageHighLow
Temperature44.1 °F51.8 °F (8:20 pm)33.8 °F (3:20 am)
Dewpoint39.5 °F48.2 °F (7:50 pm)30.2 °F (3:20 am)
Humidity83.9 %94 % (7:50 pm)76 % (10:50 am)
Barometer29.72 in29.86 in (9:20 am)29.56 in (7:20 pm)
Wind Speed12.2 mph23 mph (4:50 pm)
Wind Gust36.8 mph (4:50 pm)
Weather ElementAverage
Visibility5.2 mi
Wind DirectionSSW (218.9 °)

Weather ElementTotal
Precipitation---
Heating Degree Days22.2 (Base 65)
Averaged from 47 records on January 28, 2013
WEATHER CONDITIONS BREAKOUT
WIND DIRECTION BREAKOUT
WEATHER BY HOUR - JANUARY 28, 2013
[ °C ]   °F
Local TimeTemperatureDewpointHumidityBarometerVisibilityWind DirectionWind SpeedGust SpeedPrecipitationEventsConditions
12:50 AM39.2 °F33.8 °F81 %29.65 inSSW (210°)3.5 mphClear
1:20 AM41.0 °F35.6 °F81 %29.65 in6.2 miSW (230°)5.8 mphMostly Cloudy
1:50 AM39.2 °F33.8 °F81 %29.68 in6.2 miWSW (240°)3.5 mphPartly Cloudy
2:20 AM39.2 °F35.6 °F87 %29.68 in6.2 miSW (230°)4.6 mphPartly Cloudy
2:50 AM37.4 °F35.6 °F93 %29.68 inSW (230°)4.6 mphClear
3:20 AM33.8 °F30.2 °F87 %29.71 inWest (260°)5.8 mphClear
3:50 AM39.2 °F33.8 °F81 %29.71 inWSW (250°)8.1 mphClear
4:20 AM39.2 °F33.8 °F81 %29.74 inSW (230°)8.1 mphClear
4:50 AM39.2 °F33.8 °F81 %29.77 inSW (230°)6.9 mphClear
5:20 AM37.4 °F33.8 °F87 %29.77 inSW (230°)6.9 mphClear
5:50 AM37.4 °F33.8 °F87 %29.77 inSW (220°)6.9 mphClear
6:20 AM37.4 °F33.8 °F87 %29.80 inSW (220°)6.9 mphClear
6:50 AM37.4 °F32.0 °F81 %29.80 inSW (220°)6.9 mphClear
7:20 AM35.6 °F32.0 °F87 %29.80 inSSW (210°)5.8 mphClear
7:50 AM37.4 °F33.8 °F87 %29.83 inSSW (210°)6.9 mphClear
8:20 AM37.4 °F33.8 °F87 %29.83 inSSW (210°)4.6 mphClear
8:50 AM37.4 °F33.8 °F87 %29.83 inSouth (190°)3.5 mphClear
9:20 AM39.2 °F33.8 °F81 %29.86 in6.2 miSW (220°)5.8 mphPartly Cloudy
9:50 AM41.0 °F35.6 °F81 %29.86 in6.2 miSW (220°)8.1 mphPartly Cloudy
10:20 AM42.8 °F37.4 °F81 %29.86 inSW (220°)9.2 mphClear
10:50 AM44.6 °F37.4 °F76 %29.86 inSSW (210°)8.1 mphClear
11:20 AM44.6 °F37.4 °F76 %29.83 inSSW (210°)9.2 mphClear
11:50 AM46.4 °F39.2 °F76 %29.83 in6.2 miSSW (210°)10.4 mphPartly Cloudy
12:20 PM46.4 °F39.2 °F76 %29.83 in6.2 miSSW (210°)13.8 mphPartly Cloudy
12:50 PM46.4 °F41.0 °F81 %29.80 in6.2 miSSW (210°)11.5 mphMostly Cloudy
1:20 PM46.4 °F41.0 °F81 %29.80 in6.2 miSSW (210°)15.0 mphMostly Cloudy
1:50 PM46.4 °F41.0 °F81 %29.77 in6.2 miSSW (200°)16.1 mph27.6 mphMostly Cloudy
2:20 PM46.4 °F41.0 °F81 %29.77 in6.2 miSSW (210°)13.8 mphMostly Cloudy
2:50 PM46.4 °F41.0 °F81 %29.74 in5.6 miSouth (190°)18.4 mph29.9 mphRainLight Rain
3:20 PM46.4 °F42.8 °F87 %29.71 in6.2 miSSW (200°)16.1 mph27.6 mphRainLight Rain
3:50 PM48.2 °F42.8 °F82 %29.68 in5.0 miSSW (200°)18.4 mphRainLight Rain
4:20 PM46.4 °F42.8 °F87 %29.65 in3.7 miSSW (200°)21.9 mphRainLight Rain
4:50 PM46.4 °F42.8 °F87 %29.62 in3.1 miSSW (200°)23.0 mph36.8 mphRainLight Rain
5:20 PM46.4 °F44.6 °F93 %29.62 in2.5 miSSW (210°)23.0 mph34.5 mphRainRain
5:50 PM48.2 °F44.6 °F87 %29.62 inSSW (210°)18.4 mph29.9 mphRainRain
6:20 PM48.2 °F44.6 °F87 %29.59 in2.8 miSW (220°)19.6 mph32.2 mphRainLight Rain
6:50 PM48.2 °F46.4 °F93 %29.59 in2.5 miSW (220°)19.6 mph33.4 mphRainLight Rain
7:20 PM48.2 °F46.4 °F93 %29.56 in2.5 miSW (220°)20.7 mph34.5 mphRainLight Rain
7:50 PM50.0 °F48.2 °F94 %29.56 in3.1 miSW (220°)20.7 mph32.2 mphRainLight Rain
8:20 PM51.8 °F48.2 °F88 %29.59 in3.7 miWSW (240°)23.0 mphRainLight Rain
8:50 PM51.8 °F46.4 °F82 %29.59 in5.0 miWSW (240°)21.9 mph36.8 mphOvercast
9:20 PM51.8 °F46.4 °F82 %29.59 in5.0 miSW (230°)18.4 mph29.9 mphMostly Cloudy
9:50 PM51.8 °F46.4 °F82 %29.59 in6.2 miSW (230°)15.0 mphScattered Clouds
10:20 PM51.8 °F44.6 °F76 %29.62 in6.2 miSW (230°)12.7 mphScattered Clouds
10:50 PM51.8 °F46.4 °F82 %29.62 in6.2 miSW (220°)15.0 mphScattered Clouds
11:20 PM51.8 °F46.4 °F82 %29.65 in6.2 miSW (230°)13.8 mph25.3 mphMostly Cloudy
11:50 PM51.8 °F46.4 °F82 %29.65 in6.2 miSW (230°)15.0 mphOvercast
Hourly data recorded from EGKK, located miles away from London, England







STORIES FROM OUR PARTNERS